GW2260 Weather Reports


Display with metric or nautical units.
time (UTC)temp
F
wind
direction
speed
MPH
gust
MPH
rain 1hr
in
rain 24hr
in
rain mn
in
humidity
%
barometer
mb
20260503200118 66 277 1.0 1.0 0.00 0.00 0.00 90 1020.2
20260503200040 65 293 1.0 4.0 0.00 0.00 0.00 90 1020.2
20260503195922 66 310 2.0 4.0 0.00 0.00 0.00 90 1020.2
20260503194919 66 264 1.0 6.0 0.00 0.00 0.00 90 1020.1
20260503194546 66 26 1.0 9.0 0.00 0.00 0.00 89 1020.0
20260503193919 68 342 6.0 9.0 0.00 0.00 0.00 85 1020.0
20260503193048 67 0 0.0 3.0 0.00 0.00 0.00 88 1020.1
20260503192919 67 62 1.0 2.0 0.00 0.00 0.00 87 1020.0
20260503191918 66 206 1.0 2.0 0.00 0.00 0.00 87 1019.9
20260503191604 66 212 1.0 4.0 0.00 0.00 0.00 87 1019.9
20260503190919 66 207 2.0 4.0 0.00 0.00 0.00 88 1019.9
20260503190041 65 319 2.0 3.0 0.00 0.00 0.00 89 1019.9
20260503185918 66 328 2.0 3.0 0.00 0.00 0.00 88 1019.9
20260503184918 66 246 1.0 4.0 0.00 0.00 0.00 86 1019.9
20260503184738 66 217 1.0 4.0 0.00 0.00 0.00 86 1019.9
20260503184055 67 271 1.0 3.0 0.00 0.00 0.00 87 1019.9
20260503183044 66 319 1.0 3.0 0.00 0.00 0.00 85 1019.7
20260503182918 66 336 2.0 3.0 0.00 0.00 0.00 85 1019.6
20260503181918 66 15 1.0 2.0 0.00 0.00 0.00 84 1019.7
20260503181746 66 322 0.0 3.0 0.00 0.00 0.00 85 1019.8
20260503180045 64 294 0.0 2.0 0.00 0.00 0.00 78 1019.6
20260503175937 64 192 0.0 1.0 0.00 0.00 0.00 78 1019.7
20260503174917 63 0.0 0.0 0.00 0.00 0.00 83 1019.7
20260503174547 62 140 0.0 3.0 0.00 0.00 0.00 82 1019.7
20260503173937 62 121 2.0 3.0 0.00 0.00 0.00 82 1019.7
20260503173038 60 0 0.0 2.0 0.00 0.00 0.00 82 1019.5
20260503172917 61 0.0 0.0 0.00 0.00 0.00 83 1019.5
20260503171917 60 120 1.0 2.0 0.00 0.00 0.00 84 1019.4
20260503171542 59 77 1.0 5.0 0.00 0.00 0.00 84 1019.2
20260503150918 57 144 3.0 5.0 0.00 0.00 0.00 78 1018.4
20260503130917 58 110 2.0 3.0 0.00 0.00 0.00 80 1018.4
20260503081545 58 86 2.0 4.0 0.00 0.00 0.00 83 1019.7
20260503080919 59 118 2.0 3.0 0.00 0.00 0.00 85 1019.6
20260503071919 60 114 2.0 3.0 0.00 0.00 0.00 85 1019.0
20260503071540 59 107 1.0 3.0 0.00 0.00 0.00 85 1018.8
20260503070919 60 111 2.0 3.0 0.00 0.00 0.00 86 1018.7
20260503054939 62 0.0 0.0 0.00 0.00 0.00 92 1017.7
20260503054558 62 0 0.0 1.0 0.00 0.00 0.00 92 1017.6
20260503053939 62 90 0.0 1.0 0.00 0.00 0.00 93 1017.5
20260503053039 61 0 0.0 3.0 0.00 0.00 0.00 93 1017.5
20260503052919 62 0.0 1.0 0.00 0.00 0.00 93 1017.6
20260503051919 61 117 2.0 3.0 0.00 0.00 0.00 93 1017.4
20260503051542 61 0 1.0 3.0 0.00 0.00 0.00 92 1017.3
20260503050920 62 116 2.0 3.0 0.00 0.00 0.00 93 1017.2
20260503050044 63 0 0.0 2.0 0.00 0.00 0.00 93 1017.1
20260503045919 63 0.0 4.0 0.00 0.00 0.00 94 1017.1
20260503045812 63 0.0 0.0 0.00 0.00 0.00 95 1017.3
20260503044543 63 0 0.0 2.0 0.00 0.00 0.00 94 1017.3
20260503043802 64 0.0 0.0 0.00 0.00 0.00 94 1017.3
20260503043051 64 233 1.0 4.0 0.00 0.00 0.00 93 1017.2
20260503042220 65 222 2.0 4.0 0.00 0.00 0.00 93 1017.2
20260503041537 64 200 0.0 4.0 0.00 0.00 0.00 92 1017.1
20260503041217 65 296 1.0 1.0 0.00 0.00 0.00 93 1017.1
20260503040217 65 241 1.0 2.0 0.00 0.00 0.00 92 1016.9
20260503040046 64 243 1.0 4.0 0.00 0.00 0.00 91 1016.8
20260503035217 65 223 1.0 3.0 0.00 0.00 0.00 92 1016.9
20260503034547 65 269 1.0 6.0 0.00 0.00 0.00 91 1016.6
20260503034217 65 244 2.0 4.0 0.00 0.00 0.00 91 1016.6
20260503033237 66 210 0.0 1.0 0.00 0.00 0.00 89 1016.5
20260503033042 65 200 2.0 4.0 0.00 0.00 0.00 89 1016.4
20260503032237 66 233 1.0 2.0 0.00 0.00 0.00 92 1016.5
20260503031542 65 209 1.0 5.0 0.00 0.00 0.00 91 1016.5
20260503031218 65 219 2.0 3.0 0.00 0.00 0.00 92 1016.5
20260503030217 65 228 2.0 5.0 0.00 0.00 0.00 91 1016.6
20260503030041 65 202 0.0 3.0 0.00 0.00 0.00 90 1016.6
20260503025217 65 160 1.0 3.0 0.00 0.00 0.00 90 1016.6
20260503024543 65 193 2.0 6.0 0.00 0.00 0.00 87 1016.4
20260503024217 66 221 4.0 6.0 0.00 0.00 0.00 87 1016.5
20260503023217 66 260 2.0 3.0 0.00 0.00 0.00 87 1016.4
20260503023047 66 320 2.0 5.0 0.00 0.00 0.00 87 1016.4
20260503022217 67 227 2.0 4.0 0.00 0.00 0.00 87 1016.5
20260503021542 66 220 2.0 8.0 0.00 0.00 0.00 86 1016.5
20260503021218 67 245 1.0 2.0 0.00 0.00 0.00 87 1016.6
20260503020217 67 250 2.0 4.0 0.00 0.00 0.00 89 1016.5
20260503020041 66 280 1.0 5.0 0.00 0.00 0.00 88 1016.4
20260503015218 67 271 1.0 2.0 0.00 0.00 0.00 88 1016.4
20260503014537 67 199 2.0 9.0 0.00 0.01 0.00 85 1016.3
20260503014217 68 226 1.0 4.0 0.00 0.00 0.00 84 1016.3
20260503013237 70 217 3.0 5.0 0.00 0.00 0.00 82 1016.3
20260503013041 69 182 2.0 9.0 0.00 0.01 0.00 82 1016.2
20260503012217 70 227 5.0 9.0 0.00 0.00 0.00 82 1016.2
20260503011543 70 223 4.0 9.0 0.00 0.01 0.00 83 1016.2
20260503011240 70 270 3.0 4.0 0.00 0.00 0.00 84 1016.4
20260503010219 69 214 2.0 7.0 0.00 0.01 0.00 84 1016.4
20260503010043 69 207 4.0 9.0 0.00 0.01 0.00 84 1016.3
20260503005219 69 290 3.0 4.0 0.00 0.01 0.00 86 1016.5
20260503004541 69 222 2.0 9.0 0.00 0.05 0.00 86 1016.5
20260503004220 68 253 4.0 9.0 0.00 0.03 0.00 86 1016.7
20260503003220 68 228 3.0 7.0 0.00 0.04 0.00 87 1016.8
20260503003100 67 215 2.0 9.0 0.00 0.05 0.00 87 1016.7
20260503002220 68 219 3.0 7.0 0.00 0.05 0.00 85 1016.9
20260503001547 68 213 2.0 9.0 0.00 0.05 0.00 85 1016.8
20260503001300 68 242 2.0 4.0 0.00 0.05 0.00 86 1016.9
20260503000258 69 217 4.0 8.0 0.00 0.05 0.00 85 1017.1
20260503000044 68 211 2.0 9.0 0.00 0.05 0.00 84 1017.1
20260502235219 68 225 2.0 4.0 0.00 0.05 0.00 86 1017.2
20260502234550 67 180 1.0 7.0 0.00 0.05 0.00 86 1017.4
20260502234219 67 318 2.0 4.0 0.00 0.05 0.00 84 1017.4
20260502233240 68 228 3.0 4.0 0.00 0.05 0.00 84 1017.7
20260502233042 67 221 3.0 6.0 0.00 0.05 0.00 85 1017.5
20260502232219 68 208 4.0 6.0 0.00 0.05 0.00 86 1017.9
20260502231545 68 240 4.0 8.0 0.00 0.05 0.00 86 1017.9
20260502231220 68 224 2.0 8.0 0.00 0.05 0.00 87 1018.0
20260502230218 68 227 3.0 7.0 0.00 0.05 0.00 85 1018.1
20260502230046 68 247 3.0 9.0 0.00 0.05 0.00 84 1018.0
20260502225220 68 227 3.0 9.0 0.00 0.05 0.00 85 1018.3
20260502224545 68 206 4.0 9.0 0.00 0.05 0.00 85 1018.3
20260502224219 68 218 2.0 6.0 0.00 0.05 0.00 87 1018.3
20260502223219 67 224 3.0 6.0 0.00 0.05 0.00 87 1018.5
20260502223043 67 329 1.0 6.0 0.00 0.05 0.00 87 1018.4
20260502222240 67 219 3.0 6.0 0.00 0.05 0.00 88 1018.5
20260502221545 66 180 1.0 7.0 0.00 0.05 0.00 87 1018.5
20260502221220 67 229 1.0 2.0 0.00 0.05 0.00 89 1018.6
20260502220217 67 319 2.0 6.0 0.00 0.05 0.00 87 1018.7
20260502220045 67 5 1.0 4.0 0.00 0.05 0.00 85 1018.6
20260502215237 67 228 1.0 2.0 0.00 0.05 0.00 89 1018.7
20260502214553 66 0 0.0 5.0 0.00 0.05 0.00 89 1018.6
20260502214217 66 291 1.0 2.0 0.00 0.05 0.00 89 1018.6
20260502213217 66 280 1.0 5.0 0.00 0.05 0.00 88 1018.8
20260502213042 66 221 2.0 6.0 0.00 0.05 0.00 87 1018.8
20260502212217 67 335 2.0 2.0 0.00 0.05 0.00 86 1019.0
20260502211544 67 0 1.0 5.0 0.00 0.05 0.00 85 1018.9
20260502211217 68 305 1.0 4.0 0.00 0.05 0.00 85 1018.9
20260502210217 70 221 1.0 4.0 0.00 0.05 0.00 83 1019.0
20260502210050 69 245 1.0 7.0 0.00 0.05 0.00 82 1019.0
20260502205217 69 285 2.0 5.0 0.00 0.05 0.00 87 1019.0
20260502204550 68 327 3.0 7.0 0.00 0.05 0.00 87 1019.1
20260502204237 68 334 2.0 4.0 0.00 0.05 0.00 88 1019.1
20260502203217 68 271 2.0 4.0 0.00 0.05 0.00 86 1019.1
20260502203048 67 308 1.0 5.0 0.00 0.05 0.00 85 1019.1
20260502202217 68 49 3.0 4.0 0.00 0.05 0.00 85 1019.1
20260502201540 68 301 1.0 4.0 0.00 0.05 0.00 86 1019.1
20260502201237 68 216 2.0 2.0 0.00 0.05 0.00 87 1019.0
20260502200217 68 101 1.0 2.0 0.00 0.05 0.00 86 1019.1